Regional Weather Roundup
Issued by NWS Cleveland, OH

Home | Current Version | Previous Version | Text Only | Print | Product List | Glossary On
Versions: 1 2 3 4 5 6 7 8 9 10 11 12 13 14 15 16 17 18 19 20 21 22 23 24 25 26 27 28 29 30 31 32 33 34 35 36 37 38 39 40 41 42 43 44 45 46 47 48 49 50
000
ASUS41 KCLE 241110
RWRCLE
OHIO REGIONAL WEATHER ROUNDUP
NATIONAL WEATHER SERVICE WILMINGTON, OH
700 AM EDT SUN MAY 24 2015

NOTE: "FAIR" INDICATES FEW OR NO CLOUDS BELOW 12,000 FEET WITH NO
SIGNIFICANT WEATHER AND/OR OBSTRUCTIONS TO VISIBILITY.

OHZ001>008-015>018-024>027-034-035-043-044-241200-
   NORTHWEST OHIO

CITY           SKY/WX    TMP DP  RH WIND       PRES   REMARKS
DEFIANCE       PTCLDY    52  49  89 CALM      30.28R
FINDLAY        CLEAR     56  45  66 SE6       30.28S
TOLEDO EXPRESS CLEAR     50  46  86 CALM      30.29R
TOLEDO EXEC    CLEAR     56  44  64 CALM      30.30R
LIMA           PTCLDY    58  46  64 S8        30.29S
$$

OHZ009>014-019>023-028>033-038-089-241200-
   NORTHEAST OHIO

CITY           SKY/WX    TMP DP  RH WIND       PRES   REMARKS
CLE-HOPKINS    CLEAR     58  42  55 S5        30.33R
CLE-LAKEFRONT  CLEAR     60  41  49 SE10      30.30R
CUY CO. ARPT   NOT AVBL
LORAIN-ELYRIA  CLEAR     52  42  69 CALM      30.31R
ASHTABULA      SUNNY     50  42  74 S5        30.34R
AKRON-CANTON   CLEAR     55  41  59 S6        30.34R
WOOSTER        CLEAR     51  42  71 S3        30.34R
MANSFIELD      CLEAR     56  45  66 S6        30.33R
YOUNGSTOWN     MOSUNNY   55  39  54 S8        30.34R
$$

OHZ042-051>053-060>062-070>072-077>081-241200-
  SOUTHWEST OHIO

CITY           SKY/WX    TMP DP  RH WIND       PRES   REMARKS
CINC-COVINGTON PTCLDY    60  49  66 S7        30.28R
CINC-LUNKEN    PTCLDY    50  50 100 CALM      30.30R
HAMILTON       PTCLDY    54  50  86 CALM      30.29R
DAYTON         PTCLDY    58  48  69 SE6       30.30R
WRIGHT-PAT AFB PTCLDY    51  48  89 N2        30.30R
DAYTON GENERAL CLEAR     62  46  55 SE7       30.28S
WILMINGTON     CLEAR     58  44  60 SE3       30.30R
$$

OHZ036-037-039>041-045>050-054>059-063>069-073>076-082>088-241200-
  CENTRAL AND SOUTHEAST OHIO

CITY           SKY/WX    TMP DP  RH WIND       PRES   REMARKS
COLUMBUS       PTCLDY    52  47  83 CALM      30.31S
OSU AIRPORT    CLEAR     53  45  74 E3        30.31S
BOLTON FIELD   NOT AVBL
RICKENBACK AFB   N/A     50  47  89 NE6       30.31S
NEWARK         CLEAR     46  45  96 CALM      30.33S
MARION         CLEAR     54  44  69 S7        30.32R
LANCASTER      CLEAR     50  47  89 CALM      30.32S
ZANESVILLE     CLEAR     47  43  86 CALM      30.34R
NEW PHILLY     CLEAR     49  45  86 CALM      30.36R
$$



USA.gov is the U.S. government's official web portal to all federal, state and local government web resources and services.